Location: Unspecified
(0.0000°N, 0.0000°E)
Time: 08:33:02
(UTC+00:00)

Kosmos-2233 - Pass Details

Date: 28 February 2024
Orbit: 950 x 1007 km, 82.9° (Epoch: 24 April)

Event Time Altitude Azimuth Distance (km) Brightness Sun altitude
Rises 19:47:40 0° 205° (SSW) 3,629 8.9 -23.5°
Reaches altitude 10° 19:50:30 10° 216° (SW) 2,687 8.4 -24.2°
Maximum altitude 19:55:38 28° 273° (W) 1,708 7.4 -25.5°
Drops below altitude 10° 20:00:50 10° 331° (NNW) 2,708 8.0 -26.8°
Sets 20:03:43 0° 342° (NNW) 3,662 8.6 -27.5°
